Lapse_Rate
5.9 6.0 6.0 6.0 6.1 6.2 6.4 6.5 6.6 6.6 6.6 6.6 6.7 6.7 6.7 6.8 6.8 6.7 6.8 6.8 6.7 6.7 6.7 6.6 6.6 6.8 6.8 6.9 6.8 6.8 6.8 7.1 7.1 7.0 6.8 6.9 6.9 7.2 6.7 6.6 6.8 7.0 7.1 7.2 6.9
5.8 5.9 5.9 6.0 6.0 6.0 6.1 6.1 6.1 6.2 6.3 6.4 6.4 6.5 6.6 6.6 6.7 6.6 6.6 6.6 6.6 6.6 6.6 6.8 6.9 7.0 6.9 6.7 6.8 6.9 6.7 6.9 7.0 7.0 7.0 7.0 7.1 7.2 6.8 6.8 6.7 6.8 6.9 7.0 7.0
5.8 5.8 5.9 5.9 5.8 5.8 5.9 5.9 5.9 5.9 5.9 5.9 6.0 6.1 6.4 6.6 6.6 6.5 6.5 6.4 6.5 6.5 6.4 6.6 6.6 6.6 6.4 6.5 6.7 6.8 7.0 7.1 7.0 7.0 7.0 7.0 7.0 7.0 7.2 7.2 7.1 7.0 6.9 7.0 7.2
5.8 5.8 5.8 5.7 5.7 5.7 5.8 5.8 5.9 5.9 5.9 5.8 5.7 5.8 6.0 6.2 6.2 6.2 6.2 6.2 6.3 6.4 6.6 6.8 6.9 6.4 6.4 6.5 6.8 7.0 6.9 6.9 6.9 7.0 7.1 7.0 6.9 7.2 6.9 6.8 6.7 6.6 6.8 6.6 6.7
5.9 5.8 5.7 5.7 5.6 5.6 5.6 5.6 5.7 5.8 5.9 5.9 5.9 5.9 5.8 5.9 5.9 5.9 6.0 6.1 6.3 6.6 6.6 6.7 6.7 6.8 6.6 6.6 6.7 6.8 6.9 7.0 6.9 6.9 7.0 6.7 6.7 6.8 6.8 6.6 6.6 6.9 6.9 6.8 6.5
5.8 5.7 5.7 5.6 5.5 5.6 5.6 5.6 5.7 5.8 5.9 5.8 5.8 5.9 5.8 5.8 5.8 5.9 6.0 6.3 6.3 6.4 6.6 6.6 6.7 6.8 6.9 6.7 6.8 6.9 6.7 6.7 6.8 6.9 7.4 7.2 7.3 7.0 7.4 7.0 6.4 6.3 6.1 6.2 6.4
5.8 5.7 5.6 5.6 5.7 5.6 5.7 5.7 5.8 5.9 6.0 6.0 6.0 6.0 6.1 6.2 6.1 6.2 6.3 6.5 6.4 6.5 6.6 6.7 6.9 7.2 7.0 6.9 6.9 6.8 6.5 6.7 6.8 7.0 7.3 7.2 7.2 7.1 6.2 6.0 6.0 5.8 5.8 5.8 5.9
5.8 5.7 5.6 5.6 5.6 5.5 5.6 5.8 5.8 6.0 6.1 6.2 6.2 6.2 6.3 6.3 6.3 6.3 6.4 6.5 6.6 6.8 6.9 7.1 7.1 7.3 7.3 6.9 6.8 6.9 6.9 6.7 6.8 6.8 7.2 7.3 7.1 6.5 6.1 5.7 5.8 5.8 5.8 5.7 5.6
5.9 5.8 5.6 5.6 5.6 5.6 5.6 5.8 6.0 6.2 6.3 6.4 6.3 6.4 6.4 6.2 6.0 6.2 6.4 6.7 7.0 7.0 7.1 7.1 7.2 7.1 7.0 7.1 6.9 6.9 6.9 6.8 6.7 6.7 6.7 6.7 7.3 6.9 6.6 6.4 6.0 5.8 5.5 4.9 4.5
6.0 5.9 5.7 5.6 5.5 5.6 5.7 5.9 6.1 6.3 6.2 6.2 6.4 6.3 6.1 5.9 6.3 6.4 6.6 6.7 7.1 7.3 7.0 7.1 7.1 7.0 7.3 7.2 6.9 6.8 6.7 6.8 6.7 6.4 6.9 7.1 6.8 6.8 6.3 5.9 5.9 5.7 5.4 5.2 4.3
6.1 6.0 5.9 5.7 5.7 5.7 5.8 5.9 6.3 6.2 6.2 6.3 6.2 6.2 6.1 6.2 6.4 6.4 6.5 6.6 7.0 7.1 6.9 6.7 6.6 6.9 6.8 6.7 6.6 6.6 6.2 6.2 6.9 6.2 6.0 6.9 6.7 6.5 6.3 5.8 5.1 5.0 4.9 4.3 3.8
6.1 6.1 5.9 5.7 5.6 5.7 5.9 6.1 6.2 6.2 6.2 6.0 6.0 6.0 6.2 6.2 6.4 6.5 6.7 6.5 6.5 6.7 6.6 6.4 6.5 6.3 6.3 6.1 6.0 6.2 6.4 6.1 6.4 6.4 6.2 6.4 5.9 5.9 5.4 5.4 5.3 4.8 4.4 4.2 3.9
6.2 6.1 5.9 5.6 5.7 5.7 6.0 6.1 6.1 6.1 6.2 5.8 5.9 6.0 6.3 6.3 6.4 6.5 6.5 6.6 6.7 6.7 6.4 6.1 5.9 5.9 6.0 5.8 6.0 6.0 5.9 5.9 5.7 5.3 6.3 5.6 5.6 5.5 5.4 4.7 4.9 4.6 4.2 4.0 4.0
6.2 6.1 5.9 5.8 5.8 5.9 6.0 6.2 6.2 6.2 6.2 5.8 5.9 6.1 6.1 6.5 6.4 6.5 6.4 6.5 6.6 6.3 6.2 5.9 5.4 5.6 5.6 5.4 5.4 5.6 5.2 5.6 6.2 5.2 5.2 5.0 4.8 5.2 4.5 4.8 4.2 4.1 4.3 4.3 4.2
6.2 6.1 6.0 5.9 6.0 6.0 6.1 6.3 6.3 6.1 5.6 5.7 5.7 5.9 6.2 6.2 6.1 5.9 6.1 6.1 6.0 6.1 5.9 5.6 5.6 5.7 5.6 5.2 4.9 4.8 4.7 6.1 6.8 6.2 5.1 5.2 5.4 4.4 4.4 4.5 4.8 5.1 4.8 4.7 4.7
6.2 6.1 6.1 6.1 6.0 6.1 6.2 6.4 6.4 6.2 5.1 5.5 5.6 5.9 5.9 6.1 6.2 6.2 6.3 6.2 5.9 5.8 5.7 5.5 5.7 5.5 5.3 5.2 4.9 4.9 5.4 6.5 6.5 6.5 4.8 4.7 4.9 4.8 4.4 4.5 5.1 5.0 5.3 5.6 6.3
6.1 6.1 6.1 6.1 6.1 6.3 6.4 6.5 6.6 6.1 5.6 5.4 5.6 5.9 6.1 6.1 6.0 6.2 6.1 6.0 5.8 5.5 5.3 5.0 5.3 5.4 5.2 4.9 4.8 4.9 4.9 4.8 4.9 5.0 4.9 5.6 5.0 4.3 4.0 4.9 5.1 5.0 5.7 6.5 7.1
6.0 6.0 6.1 6.1 6.2 6.4 6.5 6.7 6.7 5.5 5.8 5.7 5.7 5.8 5.6 5.6 5.6 5.6 5.6 5.6 5.3 5.3 5.0 5.0 5.3 5.1 4.8 4.3 4.3 4.3 4.3 4.7 4.1 3.7 4.4 4.4 4.9 4.7 4.8 5.5 5.1 5.7 6.2 6.7 7.2
5.9 5.9 5.9 6.1 6.2 6.4 6.6 6.9 6.1 5.8 5.8 5.9 5.8 5.2 5.5 5.6 5.7 5.7 5.5 5.2 5.0 5.1 5.0 5.0 5.2 4.7 4.9 4.3 4.4 4.5 4.1 4.1 4.0 4.2 3.5 4.5 4.9 5.1 6.2 4.3 4.5 5.5 6.6 6.8 7.4
5.8 5.8 6.0 6.0 6.2 6.5 6.7 6.6 6.2 6.0 5.8 5.9 6.1 5.8 5.6 5.5 5.2 5.2 4.8 4.6 4.5 4.5 4.5 4.0 4.4 4.9 4.6 4.3 4.3 4.0 4.1 4.1 4.0 2.8 3.4 4.3 4.1 4.2 3.6 3.5 4.8 6.2 7.3 7.9 7.8
5.9 5.9 6.0 6.1 6.3 6.5 6.6 6.2 5.9 6.0 5.8 5.7 5.6 5.7 5.4 5.2 5.3 5.3 5.0 4.7 4.8 4.5 4.6 4.2 4.1 4.8 4.7 4.4 4.1 4.4 3.8 3.7 3.6 3.9 3.5 3.5 3.4 4.9 4.2 5.5 6.6 7.3 7.8 8.1 7.9
5.8 5.9 5.9 6.0 6.1 6.2 6.2 6.1 6.1 5.8 5.8 5.6 5.7 5.7 5.5 5.3 5.4 5.2 4.8 4.8 4.6 4.5 4.4 4.2 4.1 4.2 3.9 3.8 3.8 4.1 3.8 3.3 3.2 3.5 3.3 3.3 3.0 4.6 5.2 5.9 7.1 7.6 7.8 7.8 7.9
5.6 5.8 5.8 5.9 6.0 6.1 6.1 6.0 6.0 5.8 5.7 5.7 5.6 5.6 5.5 5.2 5.0 4.7 4.5 4.6 4.4 4.6 4.7 4.5 3.8 4.2 4.6 4.5 4.3 4.0 3.1 3.0 3.3 3.4 3.4 3.6 4.1 5.1 6.1 6.6 6.9 7.2 7.4 7.7 7.8
5.5 5.6 5.5 5.7 5.9 5.9 6.1 5.9 5.7 5.6 5.6 5.6 5.5 5.4 5.3 5.2 5.0 4.7 4.5 4.5 4.8 4.7 4.8 4.4 3.7 3.6 3.9 3.8 3.4 3.4 2.8 2.8 2.8 2.8 2.7 3.8 4.5 5.3 6.1 6.5 6.8 7.1 7.3 7.3 7.6
5.5 5.3 5.3 5.6 5.7 5.9 6.0 5.9 5.7 5.5 5.5 5.5 5.5 5.3 5.2 4.9 4.8 4.9 4.6 4.1 4.3 4.3 3.8 3.8 3.2 3.4 3.7 4.0 3.9 2.9 2.6 2.7 2.9 3.7 3.9 4.2 5.3 6.2 6.4 7.0 6.9 7.1 7.4 7.4 7.6
5.4 5.3 5.2 5.3 5.5 5.6 5.8 5.8 5.8 5.6 5.5 5.5 5.4 5.4 5.1 4.8 4.7 4.5 4.6 4.3 4.4 3.8 3.4 3.4 3.6 3.7 3.7 3.7 3.7 2.8 2.3 2.4 3.0 3.8 3.8 5.1 6.1 6.3 6.4 7.3 7.2 7.3 7.5 7.4 7.5
5.3 5.4 5.1 5.2 5.4 5.5 5.6 5.6 5.7 5.5 5.4 5.3 5.3 5.2 4.9 4.8 4.6 4.6 4.4 4.2 4.1 3.6 3.5 3.7 3.9 3.6 3.2 3.2 3.6 2.5 2.2 2.5 2.9 5.2 5.4 5.7 6.2 6.4 6.3 7.0 7.5 7.5 7.6 7.4 7.4
Wind_Speed
17 18 18 18 18 18 16 14 11 10 8 7 7 9 10 12 12 5 8 5 7 20 16 7 5 7 3 3 2 2 5 4 3 4 1 7 6 7 4 7 11 5 6 2 9
18 18 19 18 17 17 15 13 10 8 6 5 6 7 8 10 3 10 6 10 12 12 7 7 7 6 1 3 3 4 4 2 3 3 3 7 6 4 5 5 5 7 12 12 15
18 19 19 18 17 16 14 13 9 7 6 5 6 7 6 5 3 5 17 20 21 10 5 4 9 3 2 2 3 3 3 2 3 5 6 6 7 5 3 6 4 6 9 14 15
19 20 19 18 18 16 14 11 9 7 7 8 8 7 8 1 4 5 17 19 22 18 2 4 4 2 3 3 4 5 5 5 3 4 4 6 8 3 5 3 7 9 8 12 13
19 19 19 18 18 16 14 11 8 7 7 7 7 8 3 7 3 10 17 14 12 10 10 7 8 4 4 3 3 5 2 5 5 3 5 6 5 1 7 8 9 11 12 10 10
20 20 19 18 18 17 14 9 8 7 6 5 5 4 5 8 7 13 13 6 6 7 8 8 4 4 3 3 4 3 2 3 4 5 3 1 6 5 7 8 8 13 10 9 11
19 20 18 17 18 16 13 10 9 9 8 5 5 0 14 2 7 14 9 3 4 3 3 4 4 6 2 1 1 2 2 1 3 3 2 3 8 1 7 6 9 10 9 9 9
19 19 18 17 16 14 12 11 11 10 10 7 7 5 6 4 8 9 9 6 8 2 0 4 3 2 5 6 2 4 5 2 4 5 4 6 6 2 6 7 10 8 7 8 8
19 19 19 18 17 16 13 9 10 12 15 13 3 8 3 8 9 8 5 5 8 4 4 3 3 4 9 3 4 8 2 4 8 3 2 5 7 7 5 7 7 8 7 8 7
19 19 21 19 20 18 14 8 10 10 5 3 4 7 7 7 6 9 10 6 5 6 3 6 6 5 7 9 2 3 3 4 6 5 8 6 6 8 10 8 8 9 9 9 10
19 20 19 20 21 21 8 3 5 7 10 8 4 5 3 9 3 17 13 9 7 7 3 6 9 6 6 6 4 6 4 8 5 5 11 5 13 10 5 10 13 9 9 9 8
20 20 19 19 16 16 5 5 2 3 6 7 7 6 3 3 8 21 12 8 9 8 4 7 6 6 5 10 9 8 6 6 9 10 10 8 12 10 12 8 10 11 9 9 9
19 22 20 20 7 8 7 4 2 4 6 3 3 4 6 6 5 11 10 8 6 7 9 7 3 8 6 8 10 6 2 5 8 11 8 6 3 5 5 11 13 10 7 8 7
20 22 23 14 5 3 4 5 6 2 5 10 8 6 9 3 5 7 10 2 8 6 3 6 8 7 7 5 5 5 3 9 17 6 3 6 4 4 4 8 9 9 9 7 8
20 20 21 13 3 4 3 5 5 3 4 6 5 3 6 8 4 11 10 8 6 6 4 2 5 7 7 6 5 6 12 19 17 6 2 9 3 2 6 7 7 8 7 8 7
19 18 15 6 4 0 5 3 3 5 3 4 3 6 5 6 5 5 8 10 4 4 7 4 2 4 4 9 4 11 9 11 3 4 2 3 5 4 4 5 5 6 8 9 9
17 14 7 4 1 4 3 3 5 6 4 5 4 5 5 6 7 7 7 16 7 7 8 5 2 1 4 5 8 10 7 5 6 5 4 16 7 4 5 15 8 14 10 12 8
18 11 2 4 2 3 3 4 8 4 4 3 0 2 4 6 3 8 4 6 8 5 2 5 5 6 4 4 3 6 5 3 5 4 13 10 4 4 7 17 6 9 7 11 9
10 1 2 4 3 3 5 7 2 3 4 5 4 3 2 4 3 6 5 4 5 8 5 5 4 3 3 2 2 6 5 3 3 3 2 4 4 15 24 21 24 20 19 12 12
2 2 2 8 5 4 6 6 3 4 5 4 3 5 4 6 6 5 4 7 7 9 3 2 4 3 5 4 4 5 1 4 4 5 6 6 9 4 19 18 19 20 18 19 21
3 4 4 16 4 6 5 4 3 3 4 6 5 4 5 4 4 5 5 4 6 7 7 6 2 6 5 6 2 5 4 5 2 3 3 5 4 14 15 16 18 19 16 15 17
3 4 5 5 5 4 3 3 2 5 6 6 4 5 3 5 4 4 4 4 6 3 3 4 1 5 2 3 7 7 4 4 3 6 4 4 12 18 14 14 16 16 17 19 19
3 1 5 5 4 3 3 4 5 5 5 4 4 5 5 3 4 4 6 4 6 4 3 3 2 4 7 5 6 5 4 5 5 1 5 6 7 14 10 17 17 18 20 17 18
4 3 5 6 3 7 5 4 4 5 4 5 2 4 4 3 5 2 3 3 4 2 3 3 3 5 5 8 5 6 6 5 3 2 5 5 16 16 16 20 21 21 18 17 17
4 1 2 2 5 5 5 3 4 2 3 5 4 5 3 3 2 3 4 3 2 5 3 3 1 3 8 11 10 6 4 7 4 5 2 13 15 15 15 19 20 19 20 20 17
4 4 4 2 3 5 5 3 3 3 4 2 5 7 7 4 2 2 2 3 3 5 4 3 2 3 4 9 9 4 4 6 6 9 9 16 19 8 17 16 18 20 23 16 20
2 2 5 4 3 4 4 2 4 6 5 7 6 6 7 2 3 3 2 1 3 3 2 2 1 3 4 11 11 3 8 6 7 12 12 9 13 20 22 20 20 22 20 16 22
Wind_Direction
357 356 355 352 349 347 345 344 341 340 343 349 356 9 359 351 327 42 40 269 288 303 320 276 300 296 317 281 155 82 60 26 26 53 344 352 37 333 17 97 55 76 92 67 46
356 355 354 352 349 348 347 347 345 349 2 16 20 14 7 352 6 57 260 293 294 303 333 328 329 343 298 318 354 77 81 63 70 55 8 339 11 333 61 23 55 44 25 30 49
355 354 353 351 350 353 351 351 358 1 8 22 30 19 353 347 55 353 340 333 317 289 237 275 280 278 10 38 355 49 116 353 43 58 8 325 338 337 84 51 59 73 53 40 44
354 353 353 352 352 354 351 359 8 9 8 22 31 6 329 238 66 312 339 341 340 321 256 302 303 306 84 51 330 92 58 37 41 43 21 341 316 66 51 124 113 92 94 66 54
353 353 354 352 354 354 352 358 5 8 11 20 27 5 11 45 37 321 334 343 348 357 30 6 37 7 53 36 44 68 5 86 127 130 60 23 342 148 140 149 133 103 84 79 75
352 353 354 351 349 350 351 352 353 356 351 355 13 331 74 66 271 323 331 326 350 14 19 25 346 289 322 59 82 291 31 154 116 111 83 21 269 176 201 166 138 97 92 84 82
352 353 351 347 346 350 350 345 338 335 337 337 353 24 70 78 300 331 1 317 334 13 19 338 339 42 317 72 272 236 154 201 6 343 21 321 6 76 173 150 95 105 103 94 92
351 351 346 342 350 354 357 345 335 333 326 325 341 67 87 258 325 21 353 332 334 264 113 281 316 324 24 319 24 342 56 78 328 4 16 69 263 167 44 94 76 119 111 101 90
349 349 345 345 356 4 1 338 314 316 310 322 72 99 33 338 18 336 42 306 302 272 259 278 39 73 358 56 37 12 346 348 329 105 355 55 279 312 350 99 99 111 105 90 82
345 347 345 351 5 1 338 307 316 332 322 346 38 57 2 326 335 342 331 319 265 330 17 37 51 60 12 36 85 310 328 297 280 339 348 309 281 300 310 103 82 65 61 61 54
347 348 353 357 357 354 1 10 30 13 34 92 63 95 335 298 81 355 346 335 13 54 84 28 61 39 351 29 3 287 270 295 275 350 2 304 301 311 334 79 75 61 55 48 37
348 347 354 356 350 1 63 69 57 165 68 74 73 40 31 0 14 355 7 43 30 25 35 37 55 330 20 37 11 350 310 319 296 1 324 325 335 58 61 78 79 74 53 44 27
349 348 350 349 346 42 86 65 331 13 96 5 72 26 352 56 34 344 12 339 66 50 57 96 321 326 81 38 9 339 15 307 276 340 307 356 22 43 30 62 52 38 45 42 37
348 350 349 349 62 151 59 323 338 19 82 340 359 9 346 104 47 21 360 350 19 30 54 66 357 16 50 49 31 308 331 315 302 353 303 21 285 63 60 59 45 27 27 14 3
349 355 356 42 128 53 287 325 328 50 62 332 1 309 26 80 278 352 25 16 36 335 42 355 26 34 38 323 337 277 317 285 288 233 2 344 55 6 32 26 14 7 7 350 336
351 353 3 26 51 269 325 344 55 49 52 13 31 10 37 25 2 6 36 33 58 357 45 74 67 52 345 304 38 340 306 312 37 113 101 220 184 318 43 4 352 348 339 334 333
347 340 3 10 251 329 352 54 57 73 322 359 338 345 95 354 10 22 54 47 36 11 14 344 35 88 8 4 358 2 2 347 3 5 247 4 4 201 95 23 22 356 355 350 344
336 330 10 105 80 15 62 66 70 62 50 240 95 7 68 18 6 23 57 31 18 29 21 32 337 20 351 88 308 333 50 87 307 322 300 316 179 202 65 15 13 342 0 350 328
336 56 58 324 133 75 74 54 130 359 329 353 327 69 70 10 33 84 57 52 34 24 44 21 292 355 76 107 50 337 34 201 248 276 324 263 299 321 5 14 8 2 351 340 329
81 66 354 320 151 64 71 110 99 18 334 335 81 29 70 5 36 36 61 3 358 359 24 5 295 305 317 76 34 96 223 7 7 319 305 288 314 274 4 354 354 356 350 343 337
59 58 265 337 75 49 91 81 100 39 26 23 35 65 58 22 35 34 30 42 23 329 1 12 65 303 7 18 1 15 22 29 306 284 282 301 294 339 356 354 355 337 329 327 318
78 51 294 18 54 47 63 72 79 359 13 48 76 58 67 39 39 89 86 52 0 351 55 354 66 307 351 309 108 91 71 99 121 291 241 248 295 7 8 347 327 319 319 315 327
78 40 323 66 95 63 71 67 61 34 10 55 50 48 46 55 90 54 91 92 43 44 34 340 25 341 344 345 5 50 62 316 273 284 267 304 297 340 342 333 327 323 323 327 332
72 48 344 35 27 112 121 99 103 15 34 49 72 43 75 61 28 91 111 169 99 91 35 45 35 140 203 243 264 340 348 11 52 60 288 273 306 333 339 326 320 317 321 325 324
41 95 176 359 8 65 80 83 103 70 49 43 51 65 95 79 85 82 45 98 70 51 48 83 117 10 295 297 302 323 29 36 56 299 129 310 303 325 322 316 312 315 320 322 321
106 117 24 67 346 47 36 56 110 92 40 22 99 63 59 81 41 133 71 38 73 350 51 18 250 5 284 325 344 343 30 13 351 338 306 313 312 315 313 318 322 326 321 320 323
2 71 102 325 15 70 329 60 120 122 24 37 123 105 73 77 74 106 84 89 56 100 41 72 354 34 272 334 333 47 14 22 348 317 316 331 324 327 323 326 327 321 317 318 319